| time (UTC) | temp F | wind direction | speed MPH | gust MPH | rain 1hr in | rain 24hr in | rain mn in | humidity % | barometer mb |
| 20260504034611 | 67 | 0 | 0.0 | 4.0 | 0.00 | 0.00 | 0.00 | 55 | 1015.4 |
| 20260504034054 | 67 | 0 | 0.0 | 5.0 | 0.00 | 0.00 | 0.00 | 54 | 1015.4 |
| 20260504033555 | 67 | 360 | 0.0 | 5.0 | 0.00 | 0.00 | 0.00 | 54 | 1015.4 |
| 20260504033056 | 67 | 0 | 0.0 | 5.0 | 0.00 | 0.00 | 0.00 | 53 | 1015.4 |
| 20260504032555 | 68 | 360 | 1.0 | 4.0 | 0.00 | 0.00 | 0.00 | 53 | 1015.2 |
| 20260504032054 | 68 | 0 | 1.0 | 6.0 | 0.00 | 0.00 | 0.00 | 52 | 1015.3 |
| 20260504031555 | 68 | 360 | 1.0 | 6.0 | 0.00 | 0.00 | 0.00 | 51 | 1015.3 |
| 20260504031054 | 68 | 0 | 1.0 | 5.0 | 0.00 | 0.00 | 0.00 | 51 | 1015.4 |
| 20260504030554 | 69 | 203 | 1.0 | 6.0 | 0.00 | 0.00 | 0.00 | 50 | 1015.3 |
| 20260504030053 | 69 | 204 | 1.0 | 7.0 | 0.00 | 0.00 | 0.00 | 50 | 1015.3 |
| 20260504025555 | 69 | 0 | 1.0 | 7.0 | 0.00 | 0.00 | 0.00 | 49 | 1015.3 |
| 20260504025054 | 69 | 189 | 1.0 | 6.0 | 0.00 | 0.00 | 0.00 | 49 | 1015.3 |
| 20260504024556 | 70 | 196 | 1.0 | 9.0 | 0.00 | 0.00 | 0.00 | 49 | 1015.2 |
| 20260504024055 | 70 | 185 | 2.0 | 9.0 | 0.00 | 0.00 | 0.00 | 48 | 1015.2 |
| 20260504023555 | 70 | 0 | 2.0 | 9.0 | 0.00 | 0.00 | 0.00 | 48 | 1015.2 |
| 20260504023056 | 70 | 194 | 1.0 | 9.0 | 0.00 | 0.00 | 0.00 | 48 | 1015.2 |
| 20260504022555 | 70 | 196 | 2.0 | 6.0 | 0.00 | 0.00 | 0.00 | 48 | 1015.2 |
| 20260504022054 | 70 | 0 | 2.0 | 9.0 | 0.00 | 0.00 | 0.00 | 48 | 1015.2 |
| 20260504021556 | 70 | 252 | 1.0 | 9.0 | 0.00 | 0.00 | 0.00 | 48 | 1015.2 |
| 20260504021056 | 70 | 0 | 1.0 | 9.0 | 0.00 | 0.00 | 0.00 | 48 | 1015.0 |
| 20260504020554 | 70 | 202 | 2.0 | 9.0 | 0.00 | 0.00 | 0.00 | 47 | 1015.0 |
| 20260504020057 | 71 | 148 | 1.0 | 6.0 | 0.00 | 0.00 | 0.00 | 47 | 1015.0 |
| 20260504015555 | 71 | 0 | 1.0 | 6.0 | 0.00 | 0.00 | 0.00 | 47 | 1015.1 |
| 20260504015054 | 71 | 189 | 1.0 | 6.0 | 0.00 | 0.00 | 0.00 | 47 | 1015.2 |
| 20260504014616 | 71 | 192 | 0.0 | 5.0 | 0.00 | 0.00 | 0.00 | 47 | 1015.0 |
| 20260504014055 | 72 | 0 | 0.0 | 5.0 | 0.00 | 0.00 | 0.00 | 46 | 1014.9 |
| 20260504013557 | 72 | 0 | 1.0 | 5.0 | 0.00 | 0.00 | 0.00 | 46 | 1014.9 |
| 20260504013056 | 72 | 195 | 1.0 | 5.0 | 0.00 | 0.00 | 0.00 | 45 | 1014.9 |
| 20260504012555 | 73 | 0 | 1.0 | 6.0 | 0.00 | 0.00 | 0.00 | 44 | 1014.9 |
| 20260504012054 | 73 | 167 | 0.0 | 6.0 | 0.00 | 0.00 | 0.00 | 44 | 1014.9 |
| 20260504011559 | 73 | 207 | 1.0 | 5.0 | 0.00 | 0.00 | 0.00 | 44 | 1014.9 |
| 20260504011055 | 74 | 136 | 1.0 | 5.0 | 0.00 | 0.00 | 0.00 | 44 | 1015.0 |
| 20260504010554 | 74 | 209 | 0.0 | 5.0 | 0.00 | 0.00 | 0.00 | 44 | 1015.0 |
| 20260504010059 | 74 | 186 | 1.0 | 6.0 | 0.00 | 0.00 | 0.00 | 43 | 1014.8 |
| 20260504005555 | 75 | 195 | 1.0 | 6.0 | 0.00 | 0.00 | 0.00 | 42 | 1014.7 |
| 20260504005055 | 75 | 188 | 2.0 | 6.0 | 0.00 | 0.00 | 0.00 | 42 | 1014.7 |
| 20260504004555 | 76 | 0 | 1.0 | 6.0 | 0.00 | 0.00 | 0.00 | 41 | 1014.7 |
| 20260504004054 | 76 | 197 | 0.0 | 5.0 | 0.00 | 0.00 | 0.00 | 40 | 1014.6 |
| 20260504003554 | 77 | 195 | 2.0 | 5.0 | 0.00 | 0.00 | 0.00 | 39 | 1014.7 |
| 20260504003100 | 78 | 211 | 1.0 | 10.0 | 0.00 | 0.00 | 0.00 | 39 | 1014.9 |
| 20260504002555 | 79 | 176 | 3.0 | 10.0 | 0.00 | 0.00 | 0.00 | 38 | 1014.9 |
| 20260504002054 | 79 | 187 | 3.0 | 10.0 | 0.00 | 0.00 | 0.00 | 37 | 1014.9 |
| 20260504001559 | 79 | 180 | 3.0 | 11.0 | 0.00 | 0.00 | 0.00 | 38 | 1014.9 |
| 20260504001054 | 80 | 174 | 4.0 | 11.0 | 0.00 | 0.00 | 0.00 | 37 | 1014.9 |
| 20260504000555 | 80 | 185 | 3.0 | 12.0 | 0.00 | 0.00 | 0.00 | 36 | 1015.1 |
| 20260504000057 | 81 | 210 | 4.0 | 12.0 | 0.00 | 0.00 | 0.00 | 35 | 1015.0 |
| 20260503235555 | 81 | 170 | 4.0 | 12.0 | 0.00 | 0.00 | 0.00 | 35 | 1015.0 |
| 20260503235057 | 81 | 176 | 3.0 | 12.0 | 0.00 | 0.00 | 0.00 | 35 | 1015.0 |
| 20260503234555 | 81 | 0 | 2.0 | 13.0 | 0.00 | 0.00 | 0.00 | 35 | 1015.0 |
| 20260503234055 | 81 | 217 | 5.0 | 13.0 | 0.00 | 0.00 | 0.00 | 33 | 1015.2 |
| 20260503233555 | 81 | 0 | 2.0 | 9.0 | 0.00 | 0.00 | 0.00 | 34 | 1015.3 |
| 20260503233054 | 81 | 247 | 2.0 | 12.0 | 0.00 | 0.00 | 0.00 | 35 | 1015.2 |
| 20260503232554 | 81 | 250 | 4.0 | 12.0 | 0.00 | 0.00 | 0.00 | 34 | 1015.2 |
| 20260503232058 | 81 | 192 | 3.0 | 12.0 | 0.00 | 0.00 | 0.00 | 36 | 1015.3 |
| 20260503231558 | 81 | 180 | 2.0 | 8.0 | 0.00 | 0.00 | 0.00 | 37 | 1015.4 |
| 20260503231056 | 81 | 169 | 2.0 | 10.0 | 0.00 | 0.00 | 0.00 | 35 | 1015.4 |
| 20260503230555 | 81 | 0 | 2.0 | 10.0 | 0.00 | 0.00 | 0.00 | 34 | 1015.4 |
| 20260503230059 | 82 | 205 | 3.0 | 11.0 | 0.00 | 0.00 | 0.00 | 34 | 1015.4 |
| 20260503225555 | 82 | 178 | 4.0 | 11.0 | 0.00 | 0.00 | 0.00 | 33 | 1015.5 |
| 20260503225055 | 82 | 239 | 2.0 | 13.0 | 0.00 | 0.00 | 0.00 | 33 | 1015.5 |
| 20260503224558 | 83 | 225 | 4.0 | 13.0 | 0.00 | 0.00 | 0.00 | 33 | 1015.5 |
| 20260503224055 | 83 | 194 | 4.0 | 13.0 | 0.00 | 0.00 | 0.00 | 33 | 1015.6 |
| 20260503223555 | 83 | 207 | 2.0 | 11.0 | 0.00 | 0.00 | 0.00 | 34 | 1015.5 |
| 20260503223058 | 83 | 221 | 4.0 | 11.0 | 0.00 | 0.00 | 0.00 | 32 | 1015.7 |
| 20260503222554 | 83 | 216 | 4.0 | 11.0 | 0.00 | 0.00 | 0.00 | 33 | 1015.6 |
| 20260503222056 | 83 | 196 | 3.0 | 10.0 | 0.00 | 0.00 | 0.00 | 34 | 1015.6 |
| 20260503221553 | 83 | 191 | 3.0 | 10.0 | 0.00 | 0.00 | 0.00 | 32 | 1015.7 |
| 20260503221054 | 84 | 181 | 3.0 | 14.0 | 0.00 | 0.00 | 0.00 | 32 | 1015.8 |
| 20260503220555 | 83 | 213 | 3.0 | 14.0 | 0.00 | 0.00 | 0.00 | 35 | 1015.7 |
| 20260503215555 | 84 | 204 | 3.0 | 13.0 | 0.00 | 0.00 | 0.00 | 32 | 1015.9 |
| 20260503215054 | 83 | 205 | 4.0 | 13.0 | 0.00 | 0.00 | 0.00 | 31 | 1015.8 |
| 20260503214554 | 84 | 183 | 3.0 | 12.0 | 0.00 | 0.00 | 0.00 | 34 | 1016.0 |
| 20260503214055 | 84 | 192 | 2.0 | 8.0 | 0.00 | 0.00 | 0.00 | 34 | 1016.1 |
| 20260503213555 | 84 | 224 | 2.0 | 12.0 | 0.00 | 0.00 | 0.00 | 32 | 1016.2 |
| 20260503213107 | 84 | 242 | 4.0 | 12.0 | 0.00 | 0.00 | 0.00 | 32 | 1016.3 |
| 20260503212558 | 84 | 188 | 3.0 | 9.0 | 0.00 | 0.00 | 0.00 | 32 | 1016.3 |
| 20260503212055 | 84 | 214 | 2.0 | 13.0 | 0.00 | 0.00 | 0.00 | 33 | 1016.3 |
| 20260503211555 | 84 | 275 | 3.0 | 13.0 | 0.00 | 0.00 | 0.00 | 31 | 1016.5 |
| 20260503211054 | 84 | 188 | 4.0 | 13.0 | 0.00 | 0.00 | 0.00 | 33 | 1016.5 |
| 20260503210555 | 85 | 171 | 4.0 | 9.0 | 0.00 | 0.00 | 0.00 | 34 | 1016.6 |
| 20260503205555 | 85 | 166 | 2.0 | 9.0 | 0.00 | 0.00 | 0.00 | 33 | 1016.8 |
| 20260503205058 | 85 | 187 | 3.0 | 10.0 | 0.00 | 0.00 | 0.00 | 34 | 1016.8 |
| 20260503204556 | 85 | 182 | 3.0 | 13.0 | 0.00 | 0.00 | 0.00 | 35 | 1017.0 |
| 20260503204058 | 84 | 221 | 4.0 | 13.0 | 0.00 | 0.00 | 0.00 | 34 | 1017.0 |
| 20260503203554 | 84 | 263 | 4.0 | 10.0 | 0.00 | 0.00 | 0.00 | 34 | 1017.2 |
| 20260503203104 | 84 | 210 | 3.0 | 10.0 | 0.00 | 0.00 | 0.00 | 34 | 1017.2 |
| 20260503202555 | 84 | 194 | 4.0 | 10.0 | 0.00 | 0.00 | 0.00 | 34 | 1017.4 |
| 20260503202055 | 85 | 310 | 1.0 | 11.0 | 0.00 | 0.00 | 0.00 | 36 | 1017.5 |
| 20260503201558 | 84 | 202 | 2.0 | 11.0 | 0.00 | 0.00 | 0.00 | 32 | 1017.6 |
| 20260503201054 | 85 | 186 | 3.0 | 12.0 | 0.00 | 0.00 | 0.00 | 33 | 1017.7 |
| 20260503200557 | 85 | 232 | 3.0 | 12.0 | 0.00 | 0.00 | 0.00 | 34 | 1017.8 |
| 20260503195555 | 85 | 281 | 2.0 | 12.0 | 0.00 | 0.00 | 0.00 | 39 | 1017.9 |
| 20260503195055 | 85 | 150 | 3.0 | 12.0 | 0.00 | 0.00 | 0.00 | 38 | 1018.1 |
| 20260503194558 | 85 | 238 | 2.0 | 11.0 | 0.00 | 0.00 | 0.00 | 39 | 1018.1 |
| 20260503194058 | 85 | 0 | 2.0 | 12.0 | 0.00 | 0.00 | 0.00 | 36 | 1018.1 |
| 20260503193111 | 84 | 186 | 4.0 | 14.0 | 0.00 | 0.00 | 0.00 | 36 | 1018.2 |
| 20260503192555 | 85 | 203 | 3.0 | 11.0 | 0.00 | 0.00 | 0.00 | 38 | 1018.3 |
| 20260503192055 | 85 | 209 | 3.0 | 11.0 | 0.00 | 0.00 | 0.00 | 36 | 1018.5 |
| 20260503191609 | 85 | 259 | 3.0 | 11.0 | 0.00 | 0.00 | 0.00 | 42 | 1018.4 |
| 20260503191055 | 85 | 223 | 3.0 | 8.0 | 0.00 | 0.00 | 0.00 | 38 | 1018.5 |
| 20260503190554 | 84 | 227 | 2.0 | 8.0 | 0.00 | 0.00 | 0.00 | 37 | 1018.5 |
| 20260503190057 | 85 | 274 | 2.0 | 9.0 | 0.00 | 0.00 | 0.00 | 38 | 1018.6 |
| 20260503185554 | 84 | 201 | 3.0 | 11.0 | 0.00 | 0.00 | 0.00 | 34 | 1018.6 |
| 20260503185058 | 84 | 184 | 3.0 | 12.0 | 0.00 | 0.00 | 0.00 | 37 | 1018.7 |
| 20260503184607 | 84 | 186 | 3.0 | 12.0 | 0.00 | 0.00 | 0.00 | 37 | 1018.7 |
| 20260503184055 | 84 | 179 | 2.0 | 12.0 | 0.00 | 0.00 | 0.00 | 38 | 1018.7 |
| 20260503183555 | 84 | 252 | 2.0 | 12.0 | 0.00 | 0.00 | 0.00 | 39 | 1018.9 |
| 20260503183109 | 85 | 180 | 2.0 | 8.0 | 0.00 | 0.00 | 0.00 | 39 | 1018.9 |
| 20260503182558 | 84 | 196 | 3.0 | 9.0 | 0.00 | 0.00 | 0.00 | 39 | 1019.1 |
| 20260503182057 | 83 | 227 | 3.0 | 14.0 | 0.00 | 0.00 | 0.00 | 37 | 1019.3 |
| 20260503181608 | 83 | 190 | 4.0 | 15.0 | 0.00 | 0.00 | 0.00 | 38 | 1019.3 |
| 20260503181055 | 84 | 147 | 3.0 | 15.0 | 0.00 | 0.00 | 0.00 | 38 | 1019.4 |
| 20260503180556 | 84 | 197 | 2.0 | 10.0 | 0.00 | 0.00 | 0.00 | 38 | 1019.5 |
| 20260503180058 | 84 | 249 | 2.0 | 10.0 | 0.00 | 0.00 | 0.00 | 43 | 1019.6 |
| 20260503175555 | 84 | 306 | 3.0 | 9.0 | 0.00 | 0.00 | 0.00 | 39 | 1019.7 |
| 20260503175059 | 84 | 233 | 1.0 | 12.0 | 0.00 | 0.00 | 0.00 | 45 | 1019.8 |
| 20260503174555 | 83 | 182 | 4.0 | 12.0 | 0.00 | 0.00 | 0.00 | 43 | 1019.9 |
| 20260503174055 | 83 | 311 | 3.0 | 10.0 | 0.00 | 0.00 | 0.00 | 40 | 1020.0 |
| 20260503173555 | 84 | 238 | 1.0 | 9.0 | 0.00 | 0.00 | 0.00 | 42 | 1020.1 |
| 20260503173100 | 83 | 223 | 3.0 | 9.0 | 0.00 | 0.00 | 0.00 | 44 | 1020.2 |
| 20260503172554 | 83 | 159 | 3.0 | 9.0 | 0.00 | 0.00 | 0.00 | 43 | 1020.2 |
| 20260503172055 | 82 | 275 | 2.0 | 8.0 | 0.00 | 0.00 | 0.00 | 43 | 1020.2 |
| 20260503171553 | 82 | 217 | 2.0 | 9.0 | 0.00 | 0.00 | 0.00 | 43 | 1020.4 |
| 20260503171056 | 82 | 230 | 2.0 | 11.0 | 0.00 | 0.00 | 0.00 | 44 | 1020.5 |
| 20260503170555 | 81 | 247 | 4.0 | 11.0 | 0.00 | 0.00 | 0.00 | 44 | 1020.6 |
| 20260503150555 | 75 | 265 | 2.0 | 7.0 | 0.00 | 0.00 | 0.00 | 52 | 1021.1 |
| 20260503131054 | 58 | 0 | 0.0 | 3.0 | 0.00 | 0.00 | 0.00 | 82 | 1020.7 |
| 20260503130555 | 57 | 0 | 0.0 | 2.0 | 0.00 | 0.00 | 0.00 | 83 | 1020.7 |
| 20260503110556 | 52 | 0 | 0.0 | 1.0 | 0.00 | 0.00 | 0.00 | 80 | 1019.8 |
| 20260503081628 | 55 | 0 | 0.0 | 1.0 | 0.00 | 0.00 | 0.00 | 78 | 1019.6 |
| 20260503081055 | 55 | 0 | 0.0 | 1.0 | 0.00 | 0.00 | 0.00 | 78 | 1019.5 |
| 20260503080556 | 55 | 0 | 0.0 | 3.0 | 0.00 | 0.00 | 0.00 | 78 | 1019.6 |
| 20260503080111 | 55 | 0 | 0.0 | 3.0 | 0.00 | 0.00 | 0.00 | 78 | 1019.6 |
| 20260503072555 | 55 | 0 | 0.0 | 2.0 | 0.00 | 0.00 | 0.00 | 77 | 1019.8 |
| 20260503072056 | 55 | 0 | 0.0 | 1.0 | 0.00 | 0.00 | 0.00 | 78 | 1019.8 |
| 20260503071555 | 55 | 0 | 0.0 | 1.0 | 0.00 | 0.00 | 0.00 | 77 | 1019.9 |
| 20260503071055 | 56 | 0 | 0.0 | 1.0 | 0.00 | 0.00 | 0.00 | 77 | 1020.0 |
| 20260503070558 | 56 | 0 | 0.0 | 1.0 | 0.00 | 0.00 | 0.00 | 77 | 1020.0 |
| 20260503055055 | 58 | 0 | 0.0 | 1.0 | 0.00 | 0.00 | 0.00 | 73 | 1019.7 |
| 20260503054555 | 58 | 0 | 0.0 | 1.0 | 0.00 | 0.00 | 0.00 | 72 | 1019.6 |
| 20260503054057 | 58 | 0 | 0.0 | 1.0 | 0.00 | 0.00 | 0.00 | 72 | 1019.6 |
| 20260503053555 | 58 | 0 | 0.0 | 0.0 | 0.00 | 0.00 | 0.00 | 72 | 1019.6 |
| 20260503053055 | 58 | 0 | 0.0 | 0.0 | 0.00 | 0.00 | 0.00 | 71 | 1019.7 |
| 20260503052555 | 59 | 0 | 0.0 | 0.0 | 0.00 | 0.00 | 0.00 | 71 | 1019.6 |
| 20260503052056 | 59 | 0 | 0.0 | 0.0 | 0.00 | 0.00 | 0.00 | 71 | 1019.5 |
| 20260503051552 | 59 | 0 | 0.0 | 0.0 | 0.00 | 0.00 | 0.00 | 71 | 1019.5 |
| 20260503051054 | 59 | 0 | 0.0 | 0.0 | 0.00 | 0.00 | 0.00 | 71 | 1019.4 |
| 20260503050557 | 59 | 0 | 0.0 | 0.0 | 0.00 | 0.00 | 0.00 | 70 | 1019.4 |
| 20260503050058 | 59 | 0 | 0.0 | 1.0 | 0.00 | 0.00 | 0.00 | 70 | 1019.4 |
| 20260503045556 | 59 | 0 | 0.0 | 1.0 | 0.00 | 0.00 | 0.00 | 70 | 1019.4 |
| 20260503045056 | 59 | 0 | 0.0 | 2.0 | 0.00 | 0.00 | 0.00 | 70 | 1019.4 |
| 20260503044605 | 60 | 0 | 0.0 | 2.0 | 0.00 | 0.00 | 0.00 | 70 | 1019.3 |
| 20260503044055 | 60 | 0 | 0.0 | 0.0 | 0.00 | 0.00 | 0.00 | 69 | 1019.4 |
| 20260503043555 | 60 | 0 | 0.0 | 0.0 | 0.00 | 0.00 | 0.00 | 69 | 1019.4 |
| 20260503043059 | 60 | 0 | 0.0 | 0.0 | 0.00 | 0.00 | 0.00 | 69 | 1019.4 |
| 20260503042555 | 60 | 0 | 0.0 | 0.0 | 0.00 | 0.00 | 0.00 | 68 | 1019.4 |
| 20260503042055 | 61 | 0 | 0.0 | 0.0 | 0.00 | 0.00 | 0.00 | 68 | 1019.3 |
| 20260503041554 | 61 | 0 | 0.0 | 0.0 | 0.00 | 0.00 | 0.00 | 68 | 1019.4 |
| 20260503041055 | 61 | 0 | 0.0 | 0.0 | 0.00 | 0.00 | 0.00 | 67 | 1019.3 |
| 20260503040554 | 61 | 0 | 0.0 | 0.0 | 0.00 | 0.00 | 0.00 | 66 | 1019.4 |
| 20260503040100 | 61 | 0 | 0.0 | 0.0 | 0.00 | 0.00 | 0.00 | 65 | 1019.4 |
| 20260503035557 | 62 | 0 | 0.0 | 0.0 | 0.00 | 0.00 | 0.00 | 65 | 1019.4 |
| 20260503035056 | 62 | 0 | 0.0 | 0.0 | 0.00 | 0.00 | 0.00 | 64 | 1019.4 |